Preview of NWS' New Version of Forecast
This preview is not operational and should not be used for support decisions.

Regional Weather Roundup (RWR)

Issued by National Weather Service (NWS)

                            
000
ASUS45 KBOU 171710
RWRCO 

WEATHER ROUNDUP FOR COLORADO
NATIONAL WEATHER SERVICE DENVER/BOULDER CO
1000 AM MST SUN FEB 17 2019

NOTE: "FAIR" INDICATES FEW OR NO CLOUDS BELOW 12000 FEET WITH NO
SIGNIFICANT WEATHER AND/OR OBSTRUCTIONS TO VISIBILITY.

COZ001>005-013-030-031-171800-
...NORTHWEST COLORADO...
  
CITY           SKY/WX    TMP DP  RH WIND       PRES   REMARKS
CRAIG          PTSUNNY   12   8  84 SW5       29.85S WCI   4          
HAYDEN         FAIR      15   7  70 E9        29.85S WCI   3          
MEEKER         FAIR      17   7  64 CALM      29.83F                  
RANGELY        FAIR      10   4  77 CALM      29.89S                  
RABBIT EARS PA LGT SNOW N/A N/A N/A W9        29.67S                  
STEAMBOAT SPGS FAIR      11   6  79 CALM      29.83R                  
WALDEN         FAIR       9  -2  61 CALM      29.77S                  
$$

COZ006>008-011-171800-
...WEST CENTRAL VALLEYS...
  
CITY           SKY/WX    TMP DP  RH WIND       PRES   REMARKS
GRAND JUNCTION FAIR      28  15  58 SE9       29.88S WCI  19          
MONTROSE       FAIR      26   9  48 E14       29.88F WCI  14          
EAGLE          FAIR      21   5  50 CALM      29.89F                  
RIFLE          FAIR      21   9  59 CALM      29.88F                  
DELTA          FAIR      31  13  49 E6        29.90S WCI  25          
NUCLA          FAIR      28  10  47 CALM      29.88F                  
$$

COZ017>023-064>068-171800-
...SOUTHWEST COLORADO...
  
CITY           SKY/WX    TMP DP  RH WIND       PRES   REMARKS
DURANGO        CLOUDY    11   3  70 NE5       29.87S WCI   3          
CORTEZ         PTSUNNY   30  15  53 VRB3      29.86F                  
PAGOSA SPRINGS FAIR      14   8  75 CALM      29.85F                  
TELLURIDE      FAIR      16   0  48 CALM      29.78F                  
WOLF CREEK PAS   N/A      3   0  85 S8        29.75R WCI -10          
$$

COZ009-010-012-014-032>034-037-058>063-171800-
...CENTRAL COLORADO...
  
CITY           SKY/WX    TMP DP  RH WIND       PRES   REMARKS
ASPEN          FAIR      19   3  49 CALM      29.77F                  
BUENA VISTA    FAIR      13   0  55 W6        29.80F WCI   4          
COPPER MTN     CLOUDY     5   0  78 SW10      29.63S WCI -10          
BERTHOUD PASS  CLOUDY    -4 -15  59 NW13G24   29.60R WCI -23          
COTTONWOOD PAS CLOUDY    14   1  57 E7        29.73S WCI   4          
GUNNISON       CLOUDY    -3  -9  75 E3        29.90F                  
GRANBY         FAIR       0  -4  82 CALM      29.81R                  
KREMMLING      FAIR       1  -4  78 CALM      29.85S                  
LEADVILLE      CLOUDY    10   0  63 NW5       29.70S WCI   2          
MONARCH PASS   CLOUDY     1  -4  78 MISG      29.77R                  
SALIDA         FAIR      24   3  40 N9        29.87F WCI  14          
SUNLIGHT       PTSUNNY  N/A N/A N/A MISG      29.75S                  
WILKERSON PASS FAIR       5  -6  61 SW6       29.69S WCI  -6          
$$

COZ069>075-171800-
...SAN LUIS VALLEY/SANGRE DE CRISTO MOUNTAINS...
  
CITY           SKY/WX    TMP DP  RH WIND       PRES   REMARKS
ALAMOSA        FAIR      15   2  56 CALM      29.85F                  
DEL NORTE      FAIR      10  -4  52 E6        29.84S WCI   1          
LA VETA PASS   NOT AVBL                                               
SAGUACHE       FAIR      14   0  52 CALM      29.85S                  
$$

COZ035-036-038>040-171800-
...NORTHERN COLORADO FRONT RANGE...
  
CITY           SKY/WX    TMP DP  RH WIND       PRES   REMARKS
DENVER INTL AP FAIR      24  11  57 E13       29.82R WCI  12          
AURORA         MOSUNNY   30   6  35 W5        29.81F WCI  26          
FRONT RANGE AP MOSUNNY   28  12  50 NE6       29.83S WCI  22          
ERIE MUNI ARPT FAIR      27   9  46 E12       29.88S WCI  16          
BOULDER MUN AP FAIR      30  10  43 NE8       29.82R WCI  23          
CENTENNIAL     FAIR      27   5  39 SE3       29.80F                  
BROOMFIELD     MOSUNNY   34   1  25 NW8       29.80F WCI  27          
FORT COLLINS   FAIR      24  12  60 E6        29.86R WCI  17          
LONGMONT       FAIR      29  17  60 NE7       29.86R WCI  22          
$$

COZ041-046-047-076>085-087-088-171800-
...PIKES PEAK/PALMER DIVIDE AND SOUTHERN FOOTHILLS...
  
CITY           SKY/WX    TMP DP  RH WIND       PRES   REMARKS
COLO. SPRINGS  FAIR      30  -2  25 SE7       29.80F WCI  23          
A. F. ACADEMY  FAIR      31  -6  19 W8G20     29.77F WCI  23          
SCHRIEVER AFB  NOT AVBL                                               
CHEYENNE MTN   FAIR      28  -5  23 SE8       29.73S WCI  20          
ELLICOTT       NOT AVBL                                               
FALCON         FAIR      30   1  29 W9G16     29.80S WCI  21          
FORT CARSON    FAIR      33  -1  22 NE6       29.80S WCI  28          
LIMON          FAIR      27  12  53 E3        29.85R                  
MONUMENT HILL  FAIR      27   3  36 W5        29.79S WCI  21          
CANON CITY     FAIR      36   3  25 W12G20    29.82F                  
WALSENBURG     NOT AVBL                                               
TRINIDAD       FAIR      34  -4  19 E10       29.84F WCI  26          
$$

COZ042>045-048>051-090-091-171800-
...NORTHEAST COLORADO...
  
CITY           SKY/WX    TMP DP  RH WIND       PRES   REMARKS
GREELEY ARPT   FAIR      26  16  65 E10       29.88R WCI  16          
AKRON          PTSUNNY   21  13  71 N20       29.89R WCI   6          
BURLINGTON     CLOUDY    24  18  77 N13       29.91R WCI  12          
WRAY           FAIR      23  10  58 N15       29.96R WCI  10          
YUMA           FAIR      21  10  63 N15G21    29.92R WCI   8          
STERLING       CLOUDY    21  10  63 N13G18    29.93R WCI   9          
HOLYOKE        FAIR      21  10  63 N16G22    29.96R WCI   7          
FORT MORGAN      N/A     25  13  60 NE8       29.90R WCI  17          
$$

COZ086-089-092>099-171800-
...SOUTHEAST COLORADO...
  
CITY           SKY/WX    TMP DP  RH WIND       PRES   REMARKS
PUEBLO         FAIR      39  10  30 W16       29.84F                  
LA JUNTA       FAIR      32  10  40 CALM      29.89S                  
LAMAR          FAIR      32  20  61 MISG      29.92R                  
SPRINGFIELD      N/A     34  11  38 S3        29.90R                  
$$